STARLINK-35580 (66155 NORAD) Tracking and Keplerian Element Data

This shows tracking and keplerian element data for the satellite.

Feedback or suggestion? Click here.




ElementValue
Catalog66155
NameSTARLINK-35580
Epoch Orbit978
Epoch Day353.9629226
Epoch Year2025
RAAN73.0079
Inclination53.1606
Eccentricity0.0001474
Argument of Perigee96.6062
Mean Anonmoly263.5106
Mean Motion15.30198999
Decay Rate0.0001478
L11 66155U 25240K 25353.96292260 .00014780 00000+0 51016-3 0 9995
L22 66155 53.1606 73.0079 0001474 96.6062 263.5106 15.30198999 9788



Live tracking and technical data element details for STARLINK-35580 (NORAD 66155). STARLINK-35580 can be tracked NOW for your location showing map with azimuth and elevation plus other details from your city location.







IsCatalogInMostPopularTable: catalog: 66155, numindb: 4
Update: records affected: 1



GetName: 66155 STARLINK-35580

Hit Count: updated at: Sat, 07 Feb 2026 09:00:37 GMT